Location: Crescent
(42.8242°N, 73.7329°W)
Time: 18:38:11
(UTC+00:00)

Transit 4A - Pass Details

Date: 19 February 2026
Orbit: 864 x 977 km, 66.8° (Epoch: 10 March)

Event Time Altitude Azimuth Distance (km) Brightness Sun altitude
Rises 09:13:09 0° 233° (SW) 3,453 - -28.7°
Reaches altitude 10° 09:15:46 10° 241° (WSW) 2,529 - -28.2°
Maximum altitude 09:21:13 40° 310° (NW) 1,305 - -27.2°
Exits shadow 09:22:24 36° 337° (NNW) 1,394 8.7 -27.0°
Drops below altitude 10° 09:26:52 10° 19° (NNE) 2,608 10.6 -26.2°
Sets 09:29:36 0° 27° (NNE) 3,573 11.4 -25.7°
